Погода в Лос-Анджелесе

США     34°02′54″N   118°15′10″W
темп.,
°C
ветер,
м/с
пор.,
м/с
влажн.,
%
обл.,
%
осадки,
мм/ч
давл.,
гПа
погр.,
м
16 октября, сб
сб1623:00+24ссв22120 0.0 101624
02:00+23с11100 0.0 101614
05:00+21с22100 0.0 101516
08:00+21ссв22120 0.0 101521
11:00+26зюз0180 0.0 1015342
14:00+30зюз2170 0.0 10131000
17:00+27зюз44130 0.0 1013346
20:00+24зюз34170 0.0 1014161
17 октября, вс
вс1723:00+22ю232988 0.0 1015136
02:00+20ююз1144100 0.0 101583
05:00+20юв114289 0.0 101417
08:00+19юз114689 0.0 101594
11:00+22ююз22310 0.0 1015651
14:00+24юз54230 0.0 10141060
17:00+21зюз54340 0.0 1013614
20:00+19зюз34490 0.0 1014426
18 октября, пн
пн1823:00+17юз34610 0.0 1015450
02:00+17ююз22660 0.0 1015523
05:00+16юз22721 0.0 1014482
08:00+16юз227718 0.0 1015508
11:00+18юз335947 0.1 10151190
14:00+19юз544913 0.1 10141391
17:00+18юз43474 0.1 10131016
20:00+16ю22550 0.0 1014837
19 октября, вт
вт1923:00+16юв33560 0.0 1015801
02:00+15вюв33610 0.0 1015655
05:00+15юв22660 0.0 1015531
08:00+15юв22625 0.0 1016463
11:00+18юв21470 0.0 1017787
14:00+21ююз32376 0.0 10151121
17:00+21юз324230 0.0 1014812
20:00+17зюз3356100 0.0 1016436
20 октября, ср
ср2023:00+17ююз2159100 0.0 1017335
02:00+17ююз116141 0.0 1017264
05:00+16ю12625 0.0 1017145
08:00+16зюз11615 0.0 1018142
11:00+20зюз214758 0.0 1019522
14:00+22зюз423930 0.0 1017667
17:00+20зюз4345100 0.0 1016366
20:00+19юз234999 0.0 1018198